Other Public Products
Issued by NWS Grand Forks, ND

Home | Current Version | Previous Version | Text Only | Print | Product List | Glossary Off
Versions: 1 2 3 4 5 6 7 8 9 10 11 12 13 14 15 16 17 18 19 20 21 22 23 24 25 26 27 28 29 30 31 32 33 34 35 36 37 38 39 40 41 42 43 44 45 46 47 48 49 50

000
FPUS83 KFGF 030631
OPUFGF
PRAIRIE TO PINES WEATHER ROUNDUP
NATIONAL WEATHER SERVICE EASTERN NORTH DAKOTA/GRAND FORKS ND
100 AM CDT THU SEP 03 2015

 **SATELLITE DATA USED TO AUGMENT SKY COVER AT AUTOMATED STATIONS**
 *****  WEATHER ACROSS EASTERN NORTH DAKOTA  *****

CITY           SKY/WX    TMP DP  RH WIND       PRES   REMARKS
GRAND FORKS    FAIR      73  67  81 SE15      29.79F
6HR MIN TEMP:  73; 6HR MAX TEMP:  86;

GRAND FORKS AF FAIR      72  67  84 S12       29.80F
GRAND CITY NWS   N/A     72 N/A N/A SE18        N/A
BUXTON         NOT AVBL
DEVILS LAKE    FAIR      72  64  78 SE10      29.77R
6HR MIN TEMP:  72; 6HR MAX TEMP:  82;

FARGO          FAIR      74  68  81 SE12      29.81S
6HR MIN TEMP:  73; 6HR MAX TEMP:  85;

WAHPETON ARPT  FAIR      70  64  83 SE10G16   29.83S
$$

 *****  WEATHER ACROSS CENTRAL AND WESTERN NORTH DAKOTA  *****

CITY           SKY/WX    TMP DP  RH WIND       PRES   REMARKS
JAMESTOWN      MOCLDY    73  71  93 SE15      29.77F FOG
6HR MIN TEMP:  73; 6HR MAX TEMP:  84;

BISMARCK       CLEAR     75  70  84 E8        29.72F
6HR MIN TEMP:  71; 6HR MAX TEMP:  90;

MINOT          FAIR      66  62  87 E6        29.69F
6HR MIN TEMP:  66; 6HR MAX TEMP:  91;

MINOT AFB      FAIR      69  69  98 SE10      29.67F
6HR MIN TEMP:  69; 6HR MAX TEMP:  93; 6HR PCP: TRACE;

GARRISON         N/A     72  65  78 SE8       29.71F
6HR MIN TEMP:  71; 6HR MAX TEMP:  88;

WILLISTON      MOCLDY    78  54  43 S5        29.64S
6HR MIN TEMP:  74; 6HR MAX TEMP:  96;

DICKINSON      PTCLDY    68  56  65 SE8       29.70F
6HR MIN TEMP:  68; 6HR MAX TEMP:  94;

HETTINGER      CLEAR     72  58  61 E8        29.74F
6HR MIN TEMP:  69; 6HR MAX TEMP:  93;

$$

 *****  OTHER OBSERVATIONS NORTHEAST NORTH DAKOTA  *****

CITY           SKY/WX    TMP DP  RH WIND       PRES   REMARKS
WALHALLA       FAIR      72  72 100 MISG      29.78R
LANGDON        FAIR      72  68  88 S15       29.80R
CAVALIER       FAIR      73  66  78 S12       29.78S
GRAFTON        FAIR      72  68  88 SE10G16   29.79F
CANDO          FAIR      72  68  88 SE10      29.77F
FORT TOTTEN      N/A     72  69  90 S13       29.95S
ROLLA          FAIR      70  70 100 S8        29.79R
RUGBY          FAIR      73  72  94 SE10G16   29.73S
 ***** THE ABOVE OBSERVATIONS ARE NON NWS ARE NOT QUALITY
        CONTROLLED AND MAY MIS-REPORT RAIN FOR SNOW...
$$

 *****  OTHER OBSERVATIONS SOUTHEAST NORTH DAKOTA *****

CITY           SKY/WX    TMP DP  RH WIND       PRES   REMARKS
COOPERSTOWN    NOT AVBL
VALLEY CITY    CLOUDY    73  73 100 SE14G22   29.80F FOG
OAKES            N/A     72  72 100 E9        29.78F FOG
GWINNER        CLOUDY    75  75 100 SE13      29.80F
SHEYENNE NWR     N/A     71  69  95 SE9       29.95S
BUFFALO        NOT AVBL
WYNDMERE         N/A     70  70 100 SE6         N/A
 ***** THE ABOVE OBSERVATIONS ARE NON NWS ARE NOT QUALITY
       CONTROLLED AND MAY MIS-REPORT RAIN FOR SNOW...
$$

  *****  WEATHER ACROSS NORTHERN MINNESOTA  *****

CITY           SKY/WX    TMP DP  RH WIND       PRES   REMARKS
FLAG ISLAND    FAIR      72  66  83 S14       29.87S
WARROAD        FAIR      68  64  88 SE7       29.88S
ROSEAU         FAIR      72  64  78 S12       29.85F
HALLOCK        FAIR      72  66  83 SE10      29.80S
THF RVR FALLS  FAIR      68  64  88 SE10      29.85F
6HR MIN TEMP:  68; 6HR MAX TEMP:  82;

HALSTAD        NOT AVBL
FOSSTON        FAIR      64  61  88 SE9       29.88S
BAUDETTE       FAIR      66  63  90 SE9       29.90S
6HR MIN TEMP:  66; 6HR MAX TEMP:  81;

WASKISH        FAIR      64  63  94 CALM      29.91F
CROOKSTON      FAIR      70  66  88 SE9       29.83S
$$
  *****  WEATHER ACROSS CENTRAL AND WEST MINNESOTA  *****

CITY           SKY/WX    TMP DP  RH WIND       PRES   REMARKS
BEMIDJI        FAIR      64  63  96 SE6       29.92S
PARK RAPIDS    MOCLDY    70  65  84 SE10      29.91F
6HR MIN TEMP:  69; 6HR MAX TEMP:  80;

WADENA         CLOUDY    70  66  88 SE13      29.90F
DETROIT LAKES  CLOUDY    68  66  94 SE12G20   29.89S
MOORHEAD       FAIR      72  68  88 SE10      29.83S
FERGUS FALLS   FAIR      70  70 100 SE14      29.84F FOG
ELBOW LAKE     CLOUDY    70  69  98 SE10G16   29.86S FOG
6HR MIN TEMP:  70; 6HR MAX TEMP:  78;

MORRIS MN      FAIR      70  70 100 SE9       29.86R FOG
STAPLES        CLOUDY    68  66  94 SE5       29.92S
WHEATON        FAIR      68  66  94 E12       29.84F FOG
$$
  *****  WEATHER ELSEWHERE ACROSS MINNESOTA  *****

CITY           SKY/WX    TMP DP  RH WIND       PRES   REMARKS
DULUTH         CLOUDY    63  62  97 SE6       29.98R FOG
6HR MIN TEMP:  61; 6HR MAX TEMP:  69; 6HR PCP: TRACE;

INTRNTL FALLS  FAIR      64  62  93 SE5       29.93F
6HR MIN TEMP:  63; 6HR MAX TEMP:  78;

ELY            FAIR      55  54  94 CALM      29.99S
CLOQUET        FOG       63  61  94 CALM      29.98R VSB 1/4
BRAINERD       FAIR      66  65  96 VRB5      29.93S
6HR MIN TEMP:  65; 6HR MAX TEMP:  72;

HIBBING        FAIR      61  59  93 SE6       29.98R
6HR MIN TEMP:  61; 6HR MAX TEMP:  74;

ALEXANDRIA     CLOUDY    69  68  96 SE14G22   29.91S FOG
6HR MIN TEMP:  69; 6HR MAX TEMP:  76;

SAINT CLOUD    CLOUDY    69  67  93 E7        29.91F
6HR MIN TEMP:  68; 6HR MAX TEMP:  74;

MINNEAPOLIS    MOCLDY    69  67  93 E6        29.91R
6HR MIN TEMP:  69; 6HR MAX TEMP:  77;

$$

  *****  WEATHER ACROSS SOUTH DAKOTA  *****

CITY           SKY/WX    TMP DP  RH WIND       PRES   REMARKS
SIOUX FALLS    FAIR      73  70  90 SE8       29.84F
6HR MIN TEMP:  73; 6HR MAX TEMP:  83;

BROOKINGS      FAIR      72  70  94 SE12      29.86S
WATERTOWN      FAIR      74  70  87 SE12      29.83F
6HR MIN TEMP:  74; 6HR MAX TEMP:  85;

HURON          CLEAR     74  71  91 SE10      29.76F
6HR MIN TEMP:  74; 6HR MAX TEMP:  87;

SISSETON         N/A     74  72  93 S12       29.81F
ABERDEEN       CLEAR     76  72  87 SE10      29.76F
6HR MIN TEMP:  76; 6HR MAX TEMP:  86;

MITCHELL       CLEAR     73  71  93 SE10      29.79S
PIERRE         CLEAR     80  58  46 S9        29.71S
6HR MIN TEMP:  74; 6HR MAX TEMP:  91;

MOBRIDGE       CLEAR     76  73  91 SE12      29.69F
RAPID CITY     CLEAR     62  52  69 N3        29.80S
6HR MIN TEMP:  61; 6HR MAX TEMP:  93;

$$

  *****  SOME WEATHER IN NEARBY STATES *****

CITY           SKY/WX    TMP DP  RH WIND       PRES   REMARKS
GLASGOW MT     MOCLDY    72  40  31 NW15      29.67R
6HR MIN TEMP:  68; 6HR MAX TEMP:  94;

GREAT FALLS MT CLOUDY    61  38  42 NE10      29.86F
6HR MIN TEMP:  61; 6HR MAX TEMP:  78; 6HR PCP: TRACE;

CHEYENNE WY    MOCLDY    66  43  43 W10       30.08F
6HR MIN TEMP:  66; 6HR MAX TEMP:  83;

SCOTTSBLUFF NE PTCLDY    68  52  56 E5        29.91S
6HR MIN TEMP:  68; 6HR MAX TEMP:  92;

OMAHA NE       FAIR      78  70  76 S14       29.87S
6HR MIN TEMP:  78; 6HR MAX TEMP:  88;

DES MOINES IA  FAIR      75  69  81 S8        29.91S
6HR MIN TEMP:  75; 6HR MAX TEMP:  83;

DAVENPORT IA   FAIR      74  67  78 S6        29.96S
6HR MIN TEMP:  73; 6HR MAX TEMP:  82;

CHICAGO IL     FAIR      76  68  76 S5        29.96F
6HR MIN TEMP:  76; 6HR MAX TEMP:  85; 6HR PCP: TRACE;

EAU CLAIRE WI  CLOUDY    69  67  93 NE3       29.92S
6HR MIN TEMP:  68; 6HR MAX TEMP:  71;

LA CROSSE WI   FAIR      75  70  84 SE5       29.90F
6HR MIN TEMP:  75; 6HR MAX TEMP:  81; 6HR PCP: TRACE;

$$

  *****  SOME NATIONAL WEATHER *****

CITY           SKY/WX    TMP DP  RH WIND       PRES   REMARKS



USA.gov is the U.S. government's official web portal to all federal, state and local government web resources and services.